| time (UTC) | temp F | wind direction | speed MPH | gust MPH | rain 1hr in | rain 24hr in | rain mn in | humidity % | barometer mb |
| 20260504183507 | 46 | 82 | 0.0 | 2.0 | 0.00 | 0.00 | 0.00 | 69 | 1014.5 |
| 20260504183104 | 45 | 65 | 0.0 | 2.0 | 0.00 | 0.00 | 0.00 | 69 | 1014.5 |
| 20260504182502 | 45 | 65 | 0.0 | 2.0 | 0.00 | 0.00 | 0.00 | 70 | 1014.5 |
| 20260504182100 | 44 | 65 | 0.0 | 2.0 | 0.00 | 0.00 | 0.00 | 70 | 1014.7 |
| 20260504181604 | 44 | 5 | 0.0 | 0.0 | 0.00 | 0.00 | 0.00 | 70 | 1014.8 |
| 20260504181058 | 44 | 5 | 0.0 | 0.0 | 0.00 | 0.00 | 0.00 | 71 | 1014.9 |
| 20260504180557 | 44 | 61 | 0.0 | 0.0 | 0.00 | 0.00 | 0.00 | 72 | 1015.1 |
| 20260504180056 | 43 | 61 | 0.0 | 0.0 | 0.00 | 0.00 | 0.00 | 71 | 1015.2 |
| 20260504175553 | 43 | 61 | 0.0 | 0.0 | 0.00 | 0.00 | 0.00 | 71 | 1015.3 |
| 20260504175053 | 43 | 61 | 0.0 | 0.0 | 0.00 | 0.00 | 0.00 | 71 | 1015.3 |
| 20260504174557 | 42 | 61 | 0.0 | 0.0 | 0.00 | 0.00 | 0.00 | 71 | 1015.3 |
| 20260504174050 | 42 | 61 | 0.0 | 0.0 | 0.00 | 0.00 | 0.00 | 72 | 1015.4 |
| 20260504173548 | 42 | 61 | 0.0 | 0.0 | 0.00 | 0.00 | 0.00 | 71 | 1015.4 |
| 20260504173047 | 42 | 61 | 0.0 | 0.0 | 0.00 | 0.00 | 0.00 | 72 | 1015.4 |
| 20260504172546 | 41 | 61 | 0.0 | 0.0 | 0.00 | 0.00 | 0.00 | 72 | 1015.5 |
| 20260504172046 | 41 | 61 | 0.0 | 0.0 | 0.00 | 0.00 | 0.00 | 73 | 1015.5 |
| 20260504171548 | 41 | 61 | 0.0 | 0.0 | 0.00 | 0.00 | 0.00 | 74 | 1015.6 |
| 20260504171044 | 41 | 61 | 0.0 | 0.0 | 0.00 | 0.00 | 0.00 | 74 | 1015.7 |
| 20260504170542 | 40 | 61 | 0.0 | 0.0 | 0.00 | 0.00 | 0.00 | 74 | 1015.6 |
| 20260504151026 | 36 | 296 | 0.0 | 0.0 | 0.00 | 0.00 | 0.00 | 78 | 1016.1 |
| 20260504150525 | 36 | 296 | 0.0 | 0.0 | 0.00 | 0.00 | 0.00 | 78 | 1016.1 |
| 20260504141022 | 35 | 296 | 0.0 | 0.0 | 0.00 | 0.00 | 0.00 | 81 | 1016.0 |
| 20260504140521 | 35 | 296 | 0.0 | 0.0 | 0.00 | 0.00 | 0.00 | 82 | 1016.0 |
| 20260504130516 | 35 | 296 | 0.0 | 0.0 | 0.00 | 0.00 | 0.00 | 83 | 1016.1 |
| 20260504110505 | 36 | 296 | 0.0 | 0.0 | 0.00 | 0.00 | 0.00 | 80 | 1016.1 |
| 20260504100556 | 38 | 296 | 0.0 | 0.0 | 0.00 | 0.00 | 0.00 | 74 | 1016.4 |
| 20260504081541 | 41 | 296 | 0.0 | 0.0 | 0.00 | 0.00 | 0.00 | 72 | 1016.8 |
| 20260504081040 | 41 | 296 | 0.0 | 0.0 | 0.00 | 0.00 | 0.00 | 72 | 1016.7 |
| 20260504080539 | 41 | 296 | 0.0 | 0.0 | 0.00 | 0.00 | 0.00 | 71 | 1016.7 |
| 20260504050532 | 48 | 296 | 0.0 | 0.0 | 0.00 | 0.00 | 0.00 | 56 | 1017.1 |
| 20260504045531 | 48 | 296 | 0.0 | 0.0 | 0.00 | 0.00 | 0.00 | 55 | 1017.2 |
| 20260504045132 | 49 | 296 | 0.0 | 0.0 | 0.00 | 0.00 | 0.00 | 54 | 1017.2 |
| 20260504044541 | 49 | 296 | 0.0 | 0.0 | 0.00 | 0.00 | 0.00 | 54 | 1017.3 |
| 20260504044030 | 49 | 296 | 0.0 | 0.0 | 0.00 | 0.00 | 0.00 | 53 | 1017.3 |
| 20260504043530 | 49 | 296 | 0.0 | 0.0 | 0.00 | 0.00 | 0.00 | 53 | 1017.3 |
| 20260504043030 | 50 | 296 | 0.0 | 0.0 | 0.00 | 0.00 | 0.00 | 52 | 1017.3 |
| 20260504042529 | 50 | 296 | 0.0 | 0.0 | 0.00 | 0.00 | 0.00 | 52 | 1017.4 |
| 20260504042029 | 50 | 296 | 0.0 | 0.0 | 0.00 | 0.00 | 0.00 | 52 | 1017.3 |
| 20260504041530 | 51 | 296 | 0.0 | 0.0 | 0.00 | 0.00 | 0.00 | 50 | 1017.5 |
| 20260504041029 | 51 | 296 | 0.0 | 0.0 | 0.00 | 0.00 | 0.00 | 48 | 1017.4 |
| 20260504040530 | 51 | 296 | 0.0 | 1.0 | 0.00 | 0.00 | 0.00 | 49 | 1017.4 |
| 20260504040036 | 51 | 296 | 0.0 | 4.0 | 0.00 | 0.00 | 0.00 | 49 | 1017.4 |
| 20260504035529 | 51 | 298 | 1.0 | 4.0 | 0.00 | 0.00 | 0.00 | 51 | 1017.4 |
| 20260504035027 | 51 | 295 | 0.0 | 3.0 | 0.00 | 0.00 | 0.00 | 49 | 1017.4 |
| 20260504034528 | 52 | 296 | 1.0 | 5.0 | 0.00 | 0.00 | 0.00 | 51 | 1017.5 |
| 20260504034027 | 52 | 297 | 2.0 | 5.0 | 0.00 | 0.00 | 0.00 | 49 | 1017.5 |
| 20260504033527 | 52 | 255 | 1.0 | 3.0 | 0.00 | 0.00 | 0.00 | 51 | 1017.5 |
| 20260504033027 | 52 | 275 | 1.0 | 4.0 | 0.00 | 0.00 | 0.00 | 49 | 1017.5 |
| 20260504032527 | 52 | 306 | 0.0 | 4.0 | 0.00 | 0.00 | 0.00 | 51 | 1017.6 |
| 20260504032028 | 52 | 306 | 0.0 | 4.0 | 0.00 | 0.00 | 0.00 | 48 | 1017.6 |
| 20260504031530 | 52 | 284 | 0.0 | 2.0 | 0.00 | 0.00 | 0.00 | 48 | 1017.6 |
| 20260504031027 | 52 | 323 | 0.0 | 3.0 | 0.00 | 0.00 | 0.00 | 47 | 1017.6 |
| 20260504030526 | 52 | 323 | 1.0 | 3.0 | 0.00 | 0.00 | 0.00 | 46 | 1017.6 |
| 20260504030027 | 52 | 323 | 1.0 | 3.0 | 0.00 | 0.00 | 0.00 | 48 | 1017.6 |
| 20260504025525 | 52 | 324 | 2.0 | 4.0 | 0.00 | 0.00 | 0.00 | 48 | 1017.6 |
| 20260504025026 | 52 | 325 | 1.0 | 5.0 | 0.00 | 0.00 | 0.00 | 48 | 1017.6 |
| 20260504024524 | 53 | 257 | 2.0 | 5.0 | 0.00 | 0.00 | 0.00 | 48 | 1017.6 |
| 20260504024024 | 53 | 264 | 3.0 | 7.0 | 0.00 | 0.00 | 0.00 | 47 | 1017.6 |
| 20260504023524 | 53 | 24 | 2.0 | 7.0 | 0.00 | 0.00 | 0.00 | 48 | 1017.6 |
| 20260504023025 | 53 | 236 | 1.0 | 8.0 | 0.00 | 0.00 | 0.00 | 50 | 1017.7 |
| 20260504022524 | 53 | 321 | 2.0 | 8.0 | 0.00 | 0.00 | 0.00 | 47 | 1017.8 |
| 20260504022023 | 53 | 291 | 3.0 | 9.0 | 0.00 | 0.00 | 0.00 | 46 | 1018.0 |
| 20260504021524 | 53 | 294 | 3.0 | 9.0 | 0.00 | 0.00 | 0.00 | 48 | 1018.0 |
| 20260504021023 | 53 | 318 | 2.0 | 5.0 | 0.00 | 0.00 | 0.00 | 47 | 1018.0 |
| 20260504020524 | 53 | 192 | 1.0 | 7.0 | 0.00 | 0.00 | 0.00 | 47 | 1017.9 |
| 20260504020024 | 53 | 263 | 2.0 | 7.0 | 0.00 | 0.00 | 0.00 | 47 | 1017.9 |
| 20260504015522 | 53 | 261 | 2.0 | 5.0 | 0.00 | 0.00 | 0.00 | 46 | 1017.9 |
| 20260504015022 | 54 | 298 | 0.0 | 4.0 | 0.00 | 0.00 | 0.00 | 46 | 1017.9 |
| 20260504014523 | 53 | 301 | 0.0 | 2.0 | 0.00 | 0.00 | 0.00 | 46 | 1017.9 |
| 20260504014022 | 54 | 306 | 0.0 | 6.0 | 0.00 | 0.00 | 0.00 | 45 | 1018.0 |
| 20260504013522 | 53 | 305 | 3.0 | 6.0 | 0.00 | 0.00 | 0.00 | 48 | 1018.0 |
| 20260504013028 | 53 | 267 | 2.0 | 5.0 | 0.00 | 0.00 | 0.00 | 46 | 1018.1 |
| 20260504012621 | 53 | 223 | 2.0 | 5.0 | 0.00 | 0.00 | 0.00 | 47 | 1018.2 |
| 20260504012022 | 53 | 292 | 2.0 | 9.0 | 0.00 | 0.00 | 0.00 | 46 | 1018.2 |
| 20260504011520 | 53 | 348 | 4.0 | 9.0 | 0.00 | 0.00 | 0.00 | 47 | 1018.3 |
| 20260504011020 | 53 | 289 | 1.0 | 7.0 | 0.00 | 0.00 | 0.00 | 46 | 1018.3 |
| 20260504010520 | 53 | 342 | 2.0 | 5.0 | 0.00 | 0.00 | 0.00 | 47 | 1018.4 |
| 20260504010020 | 53 | 338 | 0.0 | 4.0 | 0.00 | 0.00 | 0.00 | 46 | 1018.3 |
| 20260504005520 | 54 | 303 | 2.0 | 4.0 | 0.00 | 0.00 | 0.00 | 47 | 1018.4 |
| 20260504005019 | 54 | 302 | 1.0 | 5.0 | 0.00 | 0.00 | 0.00 | 45 | 1018.5 |
| 20260504004519 | 53 | 296 | 3.0 | 8.0 | 0.00 | 0.00 | 0.00 | 48 | 1018.5 |
| 20260504004019 | 53 | 232 | 2.0 | 8.0 | 0.00 | 0.00 | 0.00 | 45 | 1018.5 |
| 20260504003518 | 53 | 232 | 2.0 | 7.0 | 0.00 | 0.00 | 0.00 | 45 | 1018.5 |
| 20260504003021 | 53 | 297 | 2.0 | 7.0 | 0.00 | 0.00 | 0.00 | 47 | 1018.5 |
| 20260504002518 | 53 | 311 | 2.0 | 6.0 | 0.00 | 0.00 | 0.00 | 47 | 1018.5 |
| 20260504002018 | 53 | 355 | 3.0 | 6.0 | 0.00 | 0.00 | 0.00 | 45 | 1018.6 |
| 20260504001519 | 52 | 284 | 2.0 | 9.0 | 0.00 | 0.00 | 0.00 | 47 | 1018.5 |
| 20260504001018 | 53 | 325 | 4.0 | 9.0 | 0.00 | 0.00 | 0.00 | 46 | 1018.7 |
| 20260504000518 | 53 | 328 | 3.0 | 8.0 | 0.00 | 0.00 | 0.00 | 45 | 1018.7 |
| 20260504000016 | 53 | 329 | 2.0 | 5.0 | 0.00 | 0.00 | 0.00 | 48 | 1018.8 |
| 20260503235516 | 53 | 218 | 2.0 | 5.0 | 0.00 | 0.00 | 0.00 | 46 | 1019.0 |
| 20260503235016 | 53 | 311 | 3.0 | 5.0 | 0.00 | 0.00 | 0.00 | 47 | 1018.9 |
| 20260503234515 | 53 | 258 | 0.0 | 6.0 | 0.00 | 0.00 | 0.00 | 47 | 1019.0 |
| 20260503234017 | 53 | 296 | 1.0 | 6.0 | 0.00 | 0.00 | 0.00 | 47 | 1019.0 |
| 20260503233515 | 53 | 242 | 2.0 | 5.0 | 0.00 | 0.00 | 0.00 | 46 | 1019.0 |
| 20260503233014 | 53 | 304 | 2.0 | 6.0 | 0.00 | 0.00 | 0.00 | 47 | 1018.9 |
| 20260503232515 | 53 | 263 | 3.0 | 6.0 | 0.00 | 0.00 | 0.00 | 46 | 1019.0 |
| 20260503232014 | 53 | 319 | 1.0 | 6.0 | 0.00 | 0.00 | 0.00 | 47 | 1019.1 |
| 20260503231520 | 53 | 314 | 2.0 | 6.0 | 0.00 | 0.00 | 0.00 | 48 | 1019.0 |
| 20260503231014 | 53 | 212 | 2.0 | 8.0 | 0.00 | 0.00 | 0.00 | 47 | 1019.0 |
| 20260503230513 | 53 | 319 | 3.0 | 8.0 | 0.00 | 0.00 | 0.00 | 48 | 1019.0 |
| 20260503230011 | 53 | 136 | 1.0 | 7.0 | 0.00 | 0.00 | 0.00 | 48 | 1019.1 |
| 20260503225515 | 53 | 121 | 2.0 | 4.0 | 0.00 | 0.00 | 0.00 | 48 | 1019.2 |
| 20260503225011 | 53 | 178 | 1.0 | 3.0 | 0.00 | 0.00 | 0.00 | 48 | 1019.4 |
| 20260503224510 | 53 | 201 | 1.0 | 5.0 | 0.00 | 0.00 | 0.00 | 47 | 1019.5 |
| 20260503224016 | 53 | 221 | 2.0 | 8.0 | 0.00 | 0.00 | 0.00 | 48 | 1019.5 |
| 20260503223512 | 53 | 144 | 2.0 | 8.0 | 0.00 | 0.00 | 0.00 | 50 | 1019.4 |
| 20260503223010 | 53 | 235 | 3.0 | 5.0 | 0.00 | 0.00 | 0.00 | 48 | 1019.4 |
| 20260503222508 | 53 | 246 | 0.0 | 5.0 | 0.00 | 0.00 | 0.00 | 50 | 1019.5 |
| 20260503222007 | 52 | 191 | 1.0 | 7.0 | 0.00 | 0.00 | 0.00 | 50 | 1019.5 |
| 20260503221507 | 52 | 233 | 2.0 | 8.0 | 0.00 | 0.00 | 0.00 | 50 | 1019.5 |
| 20260503221007 | 52 | 297 | 3.0 | 8.0 | 0.00 | 0.00 | 0.00 | 49 | 1019.6 |
| 20260503220509 | 52 | 234 | 3.0 | 10.0 | 0.00 | 0.00 | 0.00 | 48 | 1019.7 |
| 20260503220006 | 52 | 279 | 6.0 | 10.0 | 0.00 | 0.00 | 0.00 | 49 | 1019.7 |
| 20260503215507 | 52 | 263 | 1.0 | 7.0 | 0.00 | 0.00 | 0.00 | 50 | 1019.7 |
| 20260503215009 | 52 | 13 | 3.0 | 9.0 | 0.00 | 0.00 | 0.00 | 49 | 1019.7 |
| 20260503214508 | 52 | 277 | 1.0 | 5.0 | 0.00 | 0.00 | 0.00 | 48 | 1019.7 |
| 20260503214007 | 52 | 171 | 2.0 | 6.0 | 0.00 | 0.00 | 0.00 | 48 | 1019.8 |
| 20260503213505 | 52 | 221 | 3.0 | 9.0 | 0.00 | 0.00 | 0.00 | 49 | 1019.7 |
| 20260503213009 | 52 | 282 | 1.0 | 9.0 | 0.00 | 0.00 | 0.00 | 48 | 1019.8 |
| 20260503212505 | 52 | 261 | 1.0 | 9.0 | 0.00 | 0.00 | 0.00 | 48 | 1019.8 |
| 20260503212004 | 52 | 263 | 1.0 | 9.0 | 0.00 | 0.00 | 0.00 | 50 | 1019.7 |
| 20260503211504 | 52 | 168 | 3.0 | 6.0 | 0.00 | 0.00 | 0.00 | 49 | 1019.7 |
| 20260503211003 | 51 | 309 | 1.0 | 5.0 | 0.00 | 0.00 | 0.00 | 50 | 1019.7 |
| 20260503210503 | 51 | 313 | 2.0 | 4.0 | 0.00 | 0.00 | 0.00 | 51 | 1019.8 |
| 20260503210002 | 51 | 196 | 1.0 | 6.0 | 0.00 | 0.00 | 0.00 | 50 | 1019.8 |
| 20260503205501 | 51 | 313 | 2.0 | 6.0 | 0.00 | 0.00 | 0.00 | 50 | 1019.8 |
| 20260503205100 | 51 | 128 | 1.0 | 4.0 | 0.00 | 0.00 | 0.00 | 50 | 1019.9 |
| 20260503205003 | 51 | 116 | 1.0 | 4.0 | 0.00 | 0.00 | 0.00 | 50 | 1019.9 |
| 20260503204605 | 51 | 116 | 2.0 | 5.0 | 0.00 | 0.00 | 0.00 | 49 | 1019.8 |
| 20260503204059 | 51 | 211 | 1.0 | 5.0 | 0.00 | 0.00 | 0.00 | 50 | 1019.8 |
| 20260503203558 | 51 | 273 | 2.0 | 8.0 | 0.00 | 0.00 | 0.00 | 52 | 1019.8 |
| 20260503203058 | 51 | 307 | 3.0 | 8.0 | 0.00 | 0.00 | 0.00 | 51 | 1019.8 |
| 20260503202556 | 51 | 294 | 3.0 | 9.0 | 0.00 | 0.00 | 0.00 | 52 | 1019.8 |
| 20260503202059 | 51 | 314 | 3.0 | 9.0 | 0.00 | 0.00 | 0.00 | 51 | 1019.8 |
| 20260503201556 | 51 | 323 | 2.0 | 9.0 | 0.00 | 0.00 | 0.00 | 51 | 1019.7 |
| 20260503201056 | 51 | 319 | 4.0 | 9.0 | 0.00 | 0.00 | 0.00 | 53 | 1019.8 |
| 20260503200556 | 51 | 238 | 2.0 | 8.0 | 0.00 | 0.00 | 0.00 | 52 | 1019.7 |
| 20260503200053 | 51 | 246 | 2.0 | 8.0 | 0.00 | 0.00 | 0.00 | 53 | 1019.6 |
| 20260503195553 | 50 | 313 | 2.0 | 4.0 | 0.00 | 0.00 | 0.00 | 53 | 1019.7 |
| 20260503195051 | 51 | 314 | 3.0 | 5.0 | 0.00 | 0.00 | 0.00 | 51 | 1019.6 |
| 20260503194550 | 51 | 304 | 2.0 | 5.0 | 0.00 | 0.00 | 0.00 | 50 | 1019.6 |
| 20260503194049 | 51 | 315 | 3.0 | 5.0 | 0.00 | 0.00 | 0.00 | 52 | 1019.7 |
| 20260503193548 | 51 | 269 | 2.0 | 5.0 | 0.00 | 0.00 | 0.00 | 53 | 1019.7 |
| 20260503193102 | 51 | 351 | 2.0 | 4.0 | 0.00 | 0.00 | 0.00 | 50 | 1019.7 |
| 20260503192546 | 51 | 111 | 0.0 | 5.0 | 0.00 | 0.00 | 0.00 | 50 | 1019.7 |
| 20260503192044 | 51 | 195 | 2.0 | 5.0 | 0.00 | 0.00 | 0.00 | 51 | 1019.7 |
| 20260503191545 | 51 | 226 | 1.0 | 5.0 | 0.00 | 0.00 | 0.00 | 51 | 1019.7 |
| 20260503191041 | 51 | 90 | 2.0 | 5.0 | 0.00 | 0.00 | 0.00 | 50 | 1019.7 |
| 20260503190540 | 51 | 241 | 1.0 | 3.0 | 0.00 | 0.00 | 0.00 | 51 | 1019.8 |
| 20260503190049 | 50 | 242 | 1.0 | 3.0 | 0.00 | 0.00 | 0.00 | 52 | 1019.7 |
| 20260503185538 | 50 | 89 | 0.0 | 3.0 | 0.00 | 0.00 | 0.00 | 52 | 1019.7 |
| 20260503185040 | 50 | 169 | 0.0 | 3.0 | 0.00 | 0.00 | 0.00 | 53 | 1019.7 |
| 20260503184535 | 50 | 85 | 0.0 | 4.0 | 0.00 | 0.00 | 0.00 | 53 | 1019.7 |
| 20260503184034 | 49 | 40 | 2.0 | 4.0 | 0.00 | 0.00 | 0.00 | 52 | 1019.7 |